Regional Weather Roundup
Issued by NWS Cleveland, OH

Home | Current Version | Previous Version | Graphics & Text | Print | Product List | Glossary On
Versions: 1 2 3 4 5 6 7 8 9 10 11 12 13 14 15 16 17 18 19 20 21 22 23 24 25 26 27 28 29 30 31 32 33 34 35 36 37 38 39 40 41 42 43 44 45 46 47 48 49 50
000
ASUS41 KCLE 280010
RWRCLE
OHIO REGIONAL WEATHER ROUNDUP
NATIONAL WEATHER SERVICE CLEVELAND, OH
800 PM EDT TUE SEP 27 2016

NOTE: "FAIR" INDICATES FEW OR NO CLOUDS BELOW 12,000 FEET WITH NO
SIGNIFICANT WEATHER AND/OR OBSTRUCTIONS TO VISIBILITY.

OHZ001>008-015>018-024>027-034-035-043-044-280100-
   NORTHWEST OHIO

CITY           SKY/WX    TMP DP  RH WIND       PRES   REMARKS
DEFIANCE       CLEAR     59  43  55 CALM      29.78R
FINDLAY        CLEAR     63  35  35 SW6       29.78S
TOLEDO EXPRESS PTCLDY    55  48  77 CALM      29.77R
TOLEDO EXEC    CLEAR     62  41  46 CALM      29.79R
LIMA           CLEAR     65  40  39 SW6       29.80R
$$

OHZ009>014-019>023-028>033-038-089-280100-
   NORTHEAST OHIO

CITY           SKY/WX    TMP DP  RH WIND       PRES   REMARKS
CLE-HOPKINS    PTCLDY    68  38  33 S7        29.82R
CLE-LAKEFRONT  PTCLDY    70  39  32 S8        29.79R
CUY CO. ARPT   MOCLDY    70  45  40 S12       29.82R
LORAIN-ELYRIA  CLEAR     62  35  36 SW3       29.81R
ASHTABULA      MOCLDY    61  46  57 SW3       29.84R
AKRON-CANTON   PTCLDY    65  39  38 SW12      29.85R
WOOSTER        LGT RAIN  63  42  46 S6        29.84R
MANSFIELD      CLOUDY    62  44  51 SW9       29.84R
YOUNGSTOWN     MOCLDY    62  41  46 S6        29.85R
$$

OHZ042-051>053-060>062-070>072-077>081-280100-
  SOUTHWEST OHIO

CITY           SKY/WX    TMP DP  RH WIND       PRES   REMARKS
CINC-COVINGTON MOCLDY    66  47  50 SW5       29.86S
CINC-LUNKEN    PTCLDY    59  51  75 S7        29.86S
HAMILTON       CLEAR     62  49  62 CALM      29.86R
DAYTON         PTCLDY    67  45  45 SW10      29.85R
WRIGHT-PAT AFB CLEAR     62  46  56 SW8       29.84R
DAYTON GENERAL CLEAR     67  44  43 SW6       29.85R
WILMINGTON     CLEAR     61  46  57 S7        29.86R
$$

OHZ036-037-039>041-045>050-054>059-063>069-073>076-082>088-280100-
  CENTRAL AND SOUTHEAST OHIO

CITY           SKY/WX    TMP DP  RH WIND       PRES   REMARKS
COLUMBUS       PTCLDY    68  44  42 S7        29.84R
OSU AIRPORT    CLEAR     66  44  45 SW8       29.84R
BOLTON FIELD   CLEAR     61  46  59 S7        29.86R
RICKENBACK AFB CLEAR     63  44  49 S7        29.85R
NEWARK         CLEAR     65  41  41 S5        29.85R
MARION         CLEAR     59  39  47 S6        29.83R
LANCASTER      CLEAR     60  43  53 S3        29.87R
ZANESVILLE     CLEAR     65  40  39 S3        29.87R
NEW PHILLY     CLEAR     65  42  43 S5        29.87R
$$




USA.gov is the U.S. government's official web portal to all federal, state and local government web resources and services.